STARLINK-11469, 62227

Orbit data source: Space-Track

STARLINK-11469, 62227 is a payload satellite owned by SpaceX/Seattle (US) in LEO that was launched on Thu, 05 Dec 2024 UTC via an FALCON 9 launch vehicle from the Air Force Western Test Range (AFWTR). Payload-class satellites include a variety of spacecraft equipped with specific instruments for various scientific and technological missions. These include communications satellites like Starlink; space stations such as the ISS; scientific satellites like the Hubble; Earth observation satellites from companies like Planet Labs, Umbra, and HawkEye 360; GPS; miniature CubeSats for education and research; and military/defense satellites.

Loading next visibility...
Identifier
62227, 2024-231K
Orbit
LEO
Last TLE update
13 hours ago
Origin
Manufacturer
SpaceX/Seattle
Mission
Operational Commercial Communications
Bus & Motor
STARLINK V2M, Unknown motor
Mass
730 kg wet, ~700 kg dry
Launch date (UTC)
2024-12-05 (7 months ago)
Launch vehicle
FALCON 9
Launch site
Air Force Western Test Range (AFWTR)
Object type
Payload
Rocket body
Debris
Shape & HBR
Box + 2 Pan, 29 m
Radar Cross Section
36.964 m², Large (>1 m²)

Expand to show TLE details & history

TLE from 13 hours ago
0 STARLINK-11469
1 62227U 24231K   25182.58757351  .00115020  00000-0  94098-3 0  9992
2 62227  53.1566 259.0630 0001724  38.8637 321.2505 15.69713260 33926
Epoch: 2025-07-01T14:06Z
TLE epoch observation values (Epoch: 2025-07-01T14:06:06.351Z)
Latitude
0.00002°
Longitude
127.65567°
Altitude
359.726 km
Speed
7.695 km/s
True Right ascension
17h 16m 15s
True Declination
0° 00' 00"
Sunlit
Object was in full shadow at epoch
Visualization orbit readout
Latitude
-53.28754°
Longitude
37.26492°
Altitude
378.583 km
Speed
7.682 km/s
Apparent Right ascension
06h 33m 56s
Apparent Declination
-64° 47' 53"
Sunlit
Object is in daylight
Visualization observer readout
Local Sidereal Time
15:09:53
Azimuth
212.373° SW
Elevation
-51.818°
Doppler factor
1
Orbital elements
Apogee altitude
361.14 km
Perigee altitude
358.817 km
Semi-major axis
6,738.116 km
Eccentricity
0.00017
Inclination
53.1566°
RAAN
259.063°
Arg. of periapsis
38.8637°
True anomaly
Unknown
Mean anomaly
321.2505°
Eccentric anomaly
Unknown
Mean motion
3.92406 °/min
Orbital period
91.74 mins
BSTAR
0.00094098
Loading maneuver chart data...
Loading SW <> Apogee altitude chart data...
Loading historical data...
Loading historical data...
Loading historical data...
Loading historical data...
Loading historical data...
Loading historical data...
Loading historical data...

STARLINK-11469 Visibility forecast

Observer location: undefined°, undefined°

Span
Click to sort rows by Start time (UTC) header in descending order
Start Az.
Max El. time (UTC)
Max El. Az.
Max El.
End time (UTC)
End Az.
4 mins2025-07-02 07:04:38.345Z178.234° S2025-07-02 07:06:38.345Z123.472° SE21.193°2025-07-02 07:08:38.345Z78.442° E
4 mins2025-07-02 15:04:38.345Z283.725° WNW2025-07-02 15:06:38.345Z199.994° SSW30.683°2025-07-02 15:08:38.345Z156.393° SSE
|